[[{"header":{"parameterUnit":"m.s-1","parameterCategory":1,"la1":30.2991,"la2":30.254,"lo1":-89.0895,"lo2":-89.0444,"dy":0.0017,"dx":0.0017,"nx":28,"ny":28,"refTime":"2025-08-23T03:00:00:Z","depth":0,"parameterNumber":2,"parameterNumberName":"U-component_of_WINDS"},"data":[0,0,0,0,0,0,0,0,0,0,0,0,0,0,0,0,0,0,0,0,0,0,0,0,0,0,0,0,0,0,0,0,0,0,0,0,0,0,0,0,0,0,0,0,0,0,0,0,0,0,0,0,0,0,0,0,0,0,1.6892,1.6892,0,1.6908,1.6908,1.6908,1.6917,1.6917,1.6917,1.6917,1.693,1.6931,1.6931,0,0,0,0,0,0,0,0,0,0,0,0,0,1.6868,1.6868,1.6892,1.6892,1.6893,1.6908,1.6908,1.6908,1.6917,1.6917,1.6917,1.6917,1.693,1.6931,1.6931,0,0,0,0,0,0,0,0,0,0,0,0,0,1.688,1.6868,1.6892,1.6899,1.6899,1.6908,1.6908,1.6908,1.6917,1.6917,1.6917,1.6917,1.693,1.6931,1.6931,1.6934,0,0,1.6933,1.6933,0,0,0,0,0,0,0,0,1.688,1.6881,1.6898,1.6898,1.6899,1.691,1.6905,1.6917,1.6917,1.691,1.6917,1.6917,1.6924,1.6925,1.6927,1.6935,1.6935,1.6933,1.6933,1.6933,1.6934,0,0,0,0,0,0,0,1.6879,1.6881,1.6898,1.6898,1.6899,1.69,1.6902,1.6907,1.6916,1.6911,1.6911,1.6913,1.6924,1.6927,1.6928,1.6935,1.6933,1.6933,1.6934,1.6934,1.6946,1.6946,0,0,0,0,0,0,1.6877,1.688,1.6898,1.6899,1.6889,1.6901,1.6903,1.6907,1.6916,1.6918,1.6913,1.6913,1.6926,1.6927,1.6928,1.6932,1.6933,1.6934,1.6934,1.6946,1.6946,1.6946,0,0,0,0,0,0,1.6876,1.6879,1.6897,1.689,1.6892,1.6901,1.6905,1.6907,1.691,1.6918,1.692,1.6914,1.6926,1.6928,1.6933,1.6933,1.6934,1.6935,1.6946,1.6946,1.6946,1.694,0,0,0,0,0,0,1.6876,1.6878,1.688,1.689,1.6892,1.6902,1.6905,1.6907,1.6911,1.6912,1.692,1.6921,1.6926,1.6932,1.6933,1.6934,1.6935,1.6946,1.6946,1.6946,1.694,1.694,1.694,0,0,0,0,0,1.6875,1.6877,1.688,1.6882,1.6895,1.6902,1.6903,1.691,1.6911,1.6912,1.6918,1.6921,1.6933,1.6932,1.6934,1.6934,1.6946,1.6946,1.6946,1.694,1.694,1.694,0,0,0,0,0,0,1.6866,1.6878,1.6882,1.6887,1.6894,1.6903,1.6905,1.6909,1.6914,1.6915,1.6922,1.6923,1.6928,1.6932,1.6931,1.6938,1.6939,1.694,1.6935,1.6935,1.6934,1.6933,1.6935,0,0,0,0,0,1.6865,1.6871,1.6881,1.6885,1.6888,1.6896,1.6899,1.6904,1.691,1.6913,1.6918,1.6924,1.6929,1.6932,1.6937,1.6941,1.6943,1.6942,1.6942,1.6941,1.6941,1.6944,1.6944,1.6945,1.6945,1.6945,0,0,1.6863,1.687,1.6873,1.6883,1.6889,1.6894,1.6898,1.6903,1.6907,1.6913,1.6919,1.6923,1.693,1.6934,1.6936,1.6937,1.6942,1.6941,1.6941,1.6941,1.6944,1.6944,1.6944,1.6945,1.6945,1.6945,0,0,1.6861,1.6867,1.6871,1.6877,1.6885,1.6891,1.6892,1.6901,1.6904,1.691,1.6915,1.6919,1.6928,1.6932,1.6936,1.6936,1.6939,1.6937,1.6936,1.6938,1.6938,1.6938,1.6938,1.6938,1.6938,1.6938,1.6938,0,1.6856,1.6865,1.6873,1.6878,1.6882,1.6889,1.6893,1.6898,1.6907,1.691,1.6911,1.6922,1.6927,1.6933,1.6933,1.6935,1.6936,1.6937,1.6937,1.6937,1.6937,1.6938,1.6938,1.6937,1.6937,1.6937,1.6937,0,1.6859,1.6865,1.6867,1.6877,1.6882,1.6886,1.6894,1.6898,1.6902,1.6907,1.6912,1.6919,1.6925,1.6927,1.6931,1.6933,1.6934,1.6936,1.6938,1.6937,1.6937,1.6937,1.6937,1.6937,1.6937,1.6937,0,0,1.6852,1.6867,1.6867,1.6872,1.6882,1.6886,1.6891,1.6898,1.6901,1.6907,1.6911,1.6919,1.6921,1.6925,1.6929,1.6931,1.6931,1.6933,1.6934,1.6933,1.6935,1.6933,1.6933,1.6934,1.6934,1.6934,1.6934,0,1.6851,1.6861,1.6868,1.6875,1.6881,1.6887,1.6892,1.6898,1.6903,1.6908,1.6913,1.6918,1.6921,1.6923,1.6926,1.6931,1.6932,1.6931,1.6937,1.6937,1.6935,1.6933,1.6931,1.6932,1.6934,1.6934,1.6935,0,1.6852,1.6859,1.6867,1.6877,1.6879,1.6883,1.689,1.6895,1.6902,1.6906,1.6911,1.6915,1.692,1.6922,1.6928,1.6927,1.693,1.6933,1.6933,1.6934,1.6936,1.6934,1.6932,1.6932,1.6935,1.6935,1.6935,0,1.6846,1.6857,1.6864,1.6867,1.6879,1.6882,1.6887,1.6894,1.6898,1.6904,1.6907,1.6913,1.6917,1.6921,1.6927,1.6928,1.6933,1.6935,1.6936,1.6935,1.6936,1.6936,1.6935,1.6938,1.6938,1.6938,1.6938,0,1.6845,1.6849,1.6861,1.6865,1.687,1.6878,1.6882,1.6888,1.6894,1.6899,1.6905,1.6909,1.6917,1.6921,1.6926,1.6931,1.6932,1.6935,1.6936,1.6934,1.6934,1.6936,1.6936,1.6938,1.6938,1.6938,1.6938,0,1.6839,1.6847,1.6854,1.6865,1.6868,1.6871,1.688,1.6884,1.689,1.6895,1.6897,1.6905,1.6911,1.6918,1.6926,1.6929,1.6933,1.6935,1.6931,1.6932,1.6932,1.6932,1.6932,1.6932,1.6935,1.6935,1.6935,0,1.6837,1.6841,1.6853,1.6857,1.6862,1.6868,1.6873,1.6881,1.6885,1.6894,1.6896,1.6903,1.6908,1.6917,1.6924,1.693,1.6932,1.6931,1.6932,1.6931,1.6932,1.6931,1.6932,1.6931,1.6931,1.6931,1.693,0,1.6834,1.6838,1.6845,1.6853,1.6859,1.6865,1.6872,1.6875,1.6884,1.6888,1.6895,1.6899,1.6908,1.6914,1.6921,1.6925,1.6929,1.693,1.6931,1.6929,1.6926,1.6928,1.693,1.693,1.693,1.693,1.693,1.693,1.683,1.6834,1.6843,1.6851,1.6857,1.6863,1.6867,1.6874,1.688,1.6888,1.6892,1.6899,1.6906,1.6916,1.692,1.6925,1.6926,1.6927,1.6927,1.6927,1.6926,1.6926,1.6926,1.6926,1.6926,1.6926,1.6926,0,1.6827,1.6834,1.6841,1.685,1.6856,1.686,1.6868,1.6872,1.6879,1.6885,1.6891,1.6899,1.6905,1.6912,1.6919,1.6921,1.6923,1.6923,1.6923,1.6923,1.6925,1.6924,1.6921,1.6921,1.6921,1.6921,1.6921,1.6921,1.6826,1.6833,1.6838,1.6848,1.6854,1.6862,1.6866,1.6872,1.6877,1.6886,1.6891,1.6897,1.6903,1.6911,1.6916,1.6918,1.692,1.6919,1.6922,1.6923,1.6923,1.6924,1.6923,1.692,1.692,1.692,1.692,1.692]},{"header":{"parameterUnit":"m.s-1","parameterCategory":1,"la1":30.2991,"la2":30.254,"lo1":-89.0895,"lo2":-89.0444,"dy":0.0017,"dx":0.0017,"nx":28,"ny":28,"refTime":"2025-08-23T03:00:00:Z","depth":0,"parameterNumber":3,"parameterNumberName":"V-component_of_WINDS"},"data":[0,0,0,0,0,0,0,0,0,0,0,0,0,0,0,0,0,0,0,0,0,0,0,0,0,0,0,0,0,0,0,0,0,0,0,0,0,0,0,0,0,0,0,0,0,0,0,0,0,0,0,0,0,0,0,0,0,0,0.6553,0.6556,0,0.681,0.6813,0.6816,0.6953,0.6953,0.6954,0.6954,0.7215,0.7221,0.7228,0,0,0,0,0,0,0,0,0,0,0,0,0,0.6176,0.6182,0.6553,0.6556,0.656,0.681,0.6813,0.6817,0.6953,0.6953,0.6954,0.6954,0.7213,0.7221,0.7229,0,0,0,0,0,0,0,0,0,0,0,0,0,0.6377,0.6184,0.6553,0.6658,0.667,0.6809,0.6813,0.6818,0.6953,0.6953,0.6954,0.6954,0.721,0.722,0.723,0.7283,0,0,0.7261,0.7265,0,0,0,0,0,0,0,0,0.6365,0.639,0.6639,0.6651,0.6665,0.685,0.6776,0.6974,0.6953,0.6845,0.6954,0.6954,0.7093,0.7113,0.716,0.7296,0.7307,0.7261,0.7267,0.7272,0.7275,0,0,0,0,0,0,0,0.6351,0.638,0.6655,0.6643,0.6658,0.669,0.6719,0.6814,0.6964,0.6855,0.6865,0.6894,0.71,0.715,0.7167,0.7311,0.7261,0.727,0.7276,0.728,0.7498,0.7498,0,0,0,0,0,0,0.6321,0.6368,0.6647,0.6663,0.6513,0.6697,0.6729,0.679,0.6963,0.699,0.6893,0.6899,0.7133,0.7155,0.7177,0.7249,0.7272,0.7281,0.7287,0.7498,0.7498,0.7498,0,0,0,0,0,0,0.6312,0.6344,0.6636,0.6518,0.6558,0.6703,0.677,0.6795,0.6845,0.6992,0.7019,0.6917,0.7134,0.7163,0.7255,0.726,0.7286,0.7295,0.7499,0.7498,0.7498,0.7395,0,0,0,0,0,0,0.6301,0.634,0.6364,0.6518,0.6563,0.6712,0.677,0.68,0.6862,0.6873,0.7022,0.7047,0.7136,0.7239,0.7265,0.7274,0.7303,0.7499,0.7498,0.7498,0.7398,0.7391,0.7384,0,0,0,0,0,0.6287,0.6326,0.6365,0.6398,0.6596,0.6712,0.6738,0.6841,0.6862,0.6886,0.6979,0.7042,0.7254,0.7248,0.7278,0.729,0.7499,0.7499,0.7498,0.7401,0.7392,0.7385,0,0,0,0,0,0,0.617,0.6348,0.6393,0.6483,0.6581,0.6735,0.6769,0.6829,0.6923,0.6929,0.7051,0.7083,0.7163,0.7236,0.7225,0.7348,0.7383,0.7388,0.7299,0.7292,0.7285,0.7266,0.7311,0,0,0,0,0,0.6154,0.6235,0.6385,0.645,0.6496,0.6623,0.6678,0.6748,0.6854,0.6897,0.6997,0.7097,0.7186,0.7243,0.7333,0.7408,0.7441,0.7431,0.7423,0.7417,0.7421,0.7462,0.7459,0.7496,0.7496,0.7496,0,0,0.6124,0.6231,0.6275,0.6429,0.6513,0.6592,0.6658,0.6739,0.6798,0.6909,0.7003,0.7078,0.7197,0.728,0.7322,0.7343,0.7417,0.7416,0.741,0.7418,0.7461,0.7458,0.7454,0.7496,0.7496,0.7496,0,0,0.6109,0.6198,0.6261,0.6342,0.6469,0.6552,0.6566,0.671,0.6764,0.6859,0.6943,0.7013,0.7165,0.7245,0.7306,0.7313,0.7373,0.7338,0.7303,0.7342,0.7339,0.7337,0.7338,0.7337,0.7341,0.7341,0.7341,0,0.6056,0.6179,0.6285,0.6361,0.6425,0.6526,0.6588,0.6662,0.6811,0.6852,0.6873,0.7062,0.715,0.7251,0.7252,0.7298,0.7316,0.7324,0.7331,0.733,0.7329,0.7332,0.7332,0.7336,0.7336,0.7337,0.7337,0,0.6105,0.6188,0.6223,0.6363,0.643,0.6499,0.6613,0.6668,0.6729,0.6809,0.6902,0.7009,0.7121,0.715,0.7212,0.7259,0.7267,0.7307,0.7345,0.7319,0.7323,0.7325,0.7329,0.733,0.7332,0.7333,0,0,0.603,0.6223,0.6234,0.6297,0.644,0.6506,0.6576,0.6685,0.6729,0.6825,0.6886,0.7009,0.7045,0.7114,0.7184,0.7218,0.7214,0.7254,0.7259,0.7243,0.7269,0.7238,0.7238,0.7253,0.7253,0.7254,0.7258,0,0.6035,0.6169,0.6263,0.6359,0.6435,0.6529,0.659,0.6682,0.6757,0.683,0.6912,0.6997,0.7039,0.7081,0.7118,0.7206,0.7221,0.7207,0.7309,0.7312,0.7278,0.724,0.721,0.7209,0.7261,0.7261,0.7262,0,0.6062,0.6154,0.6256,0.6387,0.6423,0.6476,0.6581,0.6651,0.6755,0.6807,0.6879,0.6951,0.7026,0.7053,0.7157,0.7145,0.7191,0.724,0.7242,0.7258,0.7286,0.7254,0.7212,0.7212,0.7265,0.7265,0.7265,0,0.5995,0.6145,0.6225,0.6275,0.643,0.6464,0.653,0.6636,0.6693,0.6783,0.6821,0.6919,0.6972,0.7045,0.7139,0.715,0.7231,0.7268,0.7275,0.7272,0.7291,0.7288,0.7255,0.7318,0.7318,0.7318,0.7318,0,0.5992,0.6051,0.6196,0.6246,0.6313,0.6419,0.6482,0.6555,0.6646,0.671,0.6795,0.6852,0.6973,0.7044,0.7117,0.719,0.7214,0.7256,0.7275,0.7249,0.7243,0.7283,0.7286,0.7318,0.7318,0.7318,0.7318,0,0.5932,0.6031,0.6125,0.6261,0.6296,0.634,0.6456,0.6505,0.6582,0.666,0.6684,0.6804,0.6891,0.6991,0.7111,0.716,0.7227,0.7255,0.7192,0.7203,0.7205,0.7203,0.7197,0.72,0.7258,0.7258,0.7257,0,0.5925,0.5972,0.6112,0.616,0.6223,0.63,0.6358,0.6461,0.6518,0.6637,0.6672,0.6765,0.6845,0.6979,0.7075,0.7166,0.7197,0.7188,0.7211,0.7182,0.7196,0.7193,0.7197,0.7182,0.7181,0.718,0.7179,0,0.5901,0.5946,0.6027,0.6124,0.619,0.6272,0.6356,0.639,0.651,0.6568,0.6658,0.6719,0.684,0.693,0.7032,0.7097,0.7157,0.717,0.7177,0.7152,0.7113,0.7133,0.7175,0.7171,0.7172,0.7173,0.7173,0.7173,0.5867,0.5912,0.6016,0.6102,0.6175,0.6251,0.6303,0.6384,0.6461,0.6568,0.6622,0.671,0.6808,0.6951,0.7013,0.7081,0.7102,0.7111,0.7114,0.7115,0.7107,0.71,0.71,0.71,0.7101,0.7101,0.7101,0,0.5847,0.5917,0.5995,0.6109,0.6175,0.6224,0.6319,0.6371,0.6447,0.6533,0.6609,0.6709,0.6795,0.6896,0.6988,0.7022,0.7052,0.7043,0.7042,0.7056,0.7084,0.7069,0.7017,0.7017,0.7017,0.7017,0.7017,0.7017,0.5845,0.5923,0.5979,0.6091,0.6161,0.6248,0.6297,0.6366,0.6435,0.6543,0.6614,0.6679,0.677,0.6868,0.6948,0.6975,0.7004,0.6987,0.7022,0.7047,0.7054,0.7061,0.7048,0.6993,0.6993,0.6989,0.6989,0.6989]}]]